Regional Weather Roundup
Issued by NWS

Home | Current Version | Previous Version | Graphics & Text | Print | Product List | Glossary On
Versions: 1 2 3 4 5 6 7 8 9 10 11 12 13 14 15 16 17 18 19 20 21 22 23 24 25 26 27 28 29 30 31 32 33 34 35 36 37 38 39 40 41 42 43 44 45 46 47 48 49 50
000
ASUS43 KMPX 220810
RWRMN
WEATHER ROUNDUP FOR MINNESOTA
NATIONAL WEATHER SERVICE TWIN CITIES/CHANHASSEN MN
200 AM CST WED NOV 22 2017


NOTE: "FAIR" INDICATES FEW OR NO CLOUDS BELOW 12,000 FEET WITH NO
SIGNIFICANT WEATHER AND/OR OBSTRUCTIONS TO VISIBILITY. N/A MEANS
CURRENT SKY AND/OR WEATHER CONDITIONS ARE NOT AVAILABLE.

MNZ060>063-068>070-220900-
   Twin Cities Metro

CITY           SKY/WX    TMP DP  RH WIND       PRES   REMARKS
TWIN CITIES    CLOUDY    16  11  80 W3        30.36R
ST PAUL        CLOUDY    16  10  77 NW5       30.38R WCI   9
CRYSTAL        CLOUDY    16   7  67 NW7       30.35R WCI   6
BLAINE         CLOUDY    16  10  79 W7        30.35R WCI   6
LAKEVILLE      CLOUDY    12  10  92 NW6       30.35R WCI   3
EDEN PRAIRIE   CLOUDY    17   9  70 NW5       30.35R WCI  10
SOUTH ST PAUL  CLOUDY    17  10  72 NW3       30.36R
LAKE ELMO      FAIR      18  12  79 CALM      30.36R
$$
MNZ001>005-007-008-013>017-022>024-027-028-220900-
   Northwest Minnesota

CITY           SKY/WX    TMP DP  RH WIND       PRES   REMARKS
BEMIDJI        CLOUDY     9   6  89 SW3       30.27S
HALLOCK        CLOUDY     3   1  92 S6        30.25F WCI  -8
ROSEAU         CLOUDY    10   7  85 SW7       30.24F WCI   0
WARROAD        CLOUDY     9   5  85 SW3       30.24F
THIEF RVR FALL CLOUDY     8   5  87 S7        30.27F WCI  -3
CROOKSTON      CLOUDY     9   7  92 SW7       30.29F WCI  -3
FOSSTON        CLEAR      5   3  92 S6        30.27F WCI  -6
DETROIT LAKES  CLEAR     12   9  85 CALM      30.29F
MOORHEAD       CLOUDY     9   3  78 CALM      30.33F
PARK RAPIDS    CLOUDY     8   4  83 W6        30.29S WCI  -2
MAHNOMEN       FAIR       8   5  88 SE5       30.28F WCI  -1
$$
MNZ006-009>011-018-025>026-220900-
   North Central Minnesota

CITY           SKY/WX    TMP DP  RH WIND       PRES   REMARKS
BAUDETTE       PTCLDY     8   5  87 W5        30.23F WCI   0
FLAG ISLAND    CLEAR      9   5  85 SW9       30.20F WCI  -5
INTL FALLS       N/A      5   0  79 SW6       30.24S WCI  -6
WASKISH        CLEAR     12  10  92 W8        30.25F WCI   1
BIG FORK       CLOUDY     5   1  85 CALM      30.26S
LONGVILLE      CLOUDY    10   7  85 W3        30.29S
GRAND RAPIDS   CLOUDY    11   8  88 W6        30.30R WCI   1
CRANE LAKE     FLURRIES  12   9  85 CALM      30.24F
ORR            CLOUDY     5   1  85 CALM      30.21F
COOK           CLOUDY     7   5  92 CALM      30.24F
WALKER         FAIR      10   7  88 W3        30.29S
$$
MNZ012-019>021-037-220900-
   Northeast Minnesota

CITY           SKY/WX    TMP DP  RH WIND       PRES   REMARKS
DULUTH         CLEAR     13   9  84 NW10      30.24R WCI   0
ELY            FLURRIES  12   9  85 W10       30.23R WCI  -1
HIBBING        CLOUDY    10   6  84 NW7       30.25F WCI  -1
EVELETH        FLURRIES  12   7  79 W6        30.25S WCI   3
DULUTH HARBOR  CLEAR     19  12  73 W14       30.32R WCI   6
TWO HARBORS    CLEAR     16  10  79 CALM      30.24R
SILVER BAY     FLURRIES  16  10  79 W3        30.23R
GRAND MARAIS     N/A     19  11  70 CALM      30.24R
G MARAIS ARPRT CLEAR     12   7  79 NW7       30.14R WCI   2
$$
MNZ029>031-032-039>041-046>048-054>057-064-220900-
   West Central Minnesota

CITY           SKY/WX    TMP DP  RH WIND       PRES   REMARKS
FERGUS FALLS   CLOUDY     9   7  92 CALM      30.36F
WHEATON        CLOUDY    10   5  79 CALM      30.36F
MORRIS         CLOUDY    10   7  85 CALM      30.34R
ALEXANDRIA     CLOUDY    12   9  87 W5        30.32R WCI   4
ELBOW LAKE     FAIR       9   6  89 SW5       30.33F FOG     WCI   1
WADENA         CLOUDY     9   7  92 CALM      30.31R
GLENWOOD       CLOUDY    10   9  92 W5        30.33S WCI   2
APPLETON         N/A     10   7  85 CALM      30.36S
BENSON         CLOUDY    10   7  85 CALM      30.36R
ORTONVILLE     CLOUDY    10   7  85 MISG      30.35S
MADISON        CLOUDY    14   9  79 CALM      30.37S
WILLMAR        FAIR      12  10  92 CALM      30.36R
$$
MNZ033>034-036-042>043-049>051-058-059-220900-
   Central Minnesota

CITY           SKY/WX    TMP DP  RH WIND       PRES   REMARKS
ST CLOUD       CLOUDY    13   9  84 NW5       30.33S WCI   5
SAUK CENTRE    FAIR      12   9  88 W3        30.33R
PAYNESVILLE    CLOUDY    10   9  92 W3        30.35R
AITKIN         CLOUDY     9   7  92 CALM      30.29S
PINE RIVER     CLOUDY     9   7  92 CALM      30.33S
BRAINERD       CLOUDY    15   9  76 NW3       30.31R
STAPLES        CLOUDY     9   5  85 W5        30.31S WCI   0
LONG PRAIRIE   FAIR      12   9  85 W6        30.33R WCI   3
LITTLE FALLS   CLOUDY    12   5  73 CALM      30.33S
LITCHFIELD     CLOUDY    18  12  79 W3        30.34S
BUFFALO        CLOUDY    15   9  77 CALM      30.36S
MAPLE LAKE     CLOUDY    16  12  84 CALM      30.35S
HUTCHINSON     CLOUDY    13  10  88 CALM      30.36R
$$
MNZ037-044-045-052-053-220900-
   East Central Minnesota

CITY           SKY/WX    TMP DP  RH WIND       PRES   REMARKS
PRINCETON      CLOUDY    12  10  92 CALM      30.33S
MORA           CLOUDY    14  10  85 CALM      30.34R
CAMBRIDGE      CLOUDY    16   9  73 W3        30.34R
RUSH CITY      CLOUDY    12   9  85 SW3       30.34R
MOOSE LAKE     CLOUDY    18  10  73 NW3       30.29R
HINCKLEY       FAIR      18  12  79 CALM      30.31S
CLOQUET        FLURRIES  16   9  73 W7        30.26S WCI   6
MCGREGOR       CLOUDY    14  10  85 W3        30.30S
$$
MNZ071>073-080-081-089-090-097-098-220900-
   Southwest Minnesota

CITY           SKY/WX    TMP DP  RH WIND       PRES   REMARKS
MONTEVIDEO     CLOUDY    12   7  79 CALM      30.37S
GRANITE FALLS  CLOUDY    10   7  85 W5        30.38S WCI   2
CANBY          CLOUDY    13   9  81 CALM      30.37S
MARSHALL       CLOUDY    11   6  81 W5        30.36F WCI   3
REDWOOD FALLS  CLOUDY    13   7  77 W7        30.36S WCI   3
OLIVIA         CLOUDY    12   9  85 W3        30.35R
PIPESTONE      CLOUDY    12   7  79 CALM      30.32F
WINDOM         CLOUDY    12   0  57 NW5       30.35R WCI   4
WORTHINGTON    CLOUDY    10   4  76 W5        30.35S WCI   2
JACKSON        CLOUDY    12   9  85 CALM      30.35S
SLAYTON        CLOUDY    10   3  72 W3        30.33F
$$
MNZ065>067-074>077-082>085-091>093-220900-
   South Central Minnesota

CITY           SKY/WX    TMP DP  RH WIND       PRES   REMARKS
MANKATO        CLOUDY    15  10  80 NW7       30.36F WCI   5
NEW ULM        CLOUDY    10   7  85 CALM      30.36F
ST JAMES       CLOUDY    12   9  85 NW3       30.36F
FAIRMONT       CLOUDY    16  10  77 NW8       30.36F WCI   5
GLENCOE        CLOUDY    17  12  81 CALM      30.35S
FARIBAULT      CLOUDY    16  10  79 W6        30.35R WCI   7
OWATONNA       CLOUDY    12   9  85 W3        30.34R
WASECA         CLOUDY    14  10  85 W5        30.36S WCI   6
ALBERT LEA     CLOUDY    16  10  79 NW3       30.33F
$$
MNZ078>079-086>088-094>096-220900-
   Southeast Minnesota

CITY           SKY/WX    TMP DP  RH WIND       PRES   REMARKS
ROCHESTER      CLOUDY    14  11  87 NW8       30.31R WCI   3
RED WING       CLOUDY    16   9  73 W3        30.35R
STANTON        CLOUDY    16  11  80 NW5       30.35R WCI   9
DODGE CENTER   CLOUDY    16  10  79 NW6       30.32R WCI   7
WINONA           N/A     21  12  68 N9        30.34S WCI  11
AUSTIN         CLOUDY    16  10  79 NW7       30.33R WCI   6
PRESTON        CLOUDY    15  10  80 NW7       30.31S WCI   6
$$
ABBREVIATIONS USED IN REMARKS
   TC - TEMPERATURES IN CELSIUS
  WCI - WIND CHILL INDEX
   HX - HEAT INDEX
  VSB - VISIBILITY
$$




USA.gov is the U.S. government's official web portal to all federal, state and local government web resources and services.